GW4149 Weather Reports


Display with metric or nautical units.
time (UTC)temp
F
wind
direction
speed
MPH
gust
MPH
rain 1hr
in
rain 24hr
in
rain mn
in
humidity
%
barometer
mb
20260505062758 62 114 8.0 13.0 0.00 0.00 0.00 43 916.5
20260505062251 62 81 9.0 13.0 0.00 0.00 0.00 44 916.5
20260505062006 62 73 10.0 13.0 0.00 0.00 0.00 44 916.5
20260505061237 62 78 10.0 13.0 0.00 0.00 0.00 45 916.5
20260505060729 61 81 9.0 13.0 0.00 0.00 0.00 45 916.5
20260505060219 61 71 8.0 13.0 0.00 0.00 0.00 45 916.5
20260505055713 62 75 9.0 13.0 0.00 0.00 0.00 45 916.4
20260505055208 62 73 10.0 13.0 0.00 0.00 0.00 44 916.5
20260505054657 62 74 9.0 13.0 0.00 0.00 0.00 44 916.5
20260505054151 62 73 9.0 13.0 0.00 0.00 0.00 44 916.4
20260505053645 62 73 9.0 12.0 0.00 0.00 0.00 44 916.4
20260505053135 62 75 10.0 12.0 0.00 0.00 0.00 43 916.4
20260505052630 63 82 10.0 12.0 0.00 0.00 0.00 43 916.4
20260505052123 63 79 9.0 13.0 0.00 0.00 0.00 43 916.5
20260505051832 62 78 9.0 13.0 0.00 0.00 0.00 43 916.4
20260505051120 63 79 9.0 12.0 0.00 0.00 0.00 43 916.4
20260505050601 63 82 9.0 13.0 0.00 0.00 0.00 43 916.4
20260505050104 63 80 9.0 14.0 0.00 0.00 0.00 43 916.4
20260505041445 59 79 4.0 9.0 0.00 0.00 0.00 49 916.0
20260505040939 61 58 3.0 8.0 0.00 0.00 0.00 46 916.0
20260505040433 62 36 2.0 8.0 0.00 0.00 0.00 43 915.9
20260505035923 63 30 4.0 10.0 0.00 0.00 0.00 42 915.9
20260505035417 64 27 6.0 10.0 0.00 0.00 0.00 40 915.8
20260505035354 65 24 7.0 10.0 0.00 0.00 0.00 39 915.8
20260505034623 65 27 7.0 10.0 0.00 0.00 0.00 39 915.7
20260505034339 65 25 8.0 14.0 0.00 0.00 0.00 39 915.7
20260505033349 65 28 9.0 14.0 0.00 0.00 0.00 39 915.6
20260505032839 66 21 9.0 13.0 0.00 0.00 0.00 39 915.6
20260505032334 65 35 9.0 13.0 0.00 0.00 0.00 39 915.5
20260505031827 65 27 8.0 12.0 0.00 0.00 0.00 39 915.5
20260505031318 65 29 7.0 12.0 0.00 0.00 0.00 40 915.4
20260505030811 64 40 6.0 10.0 0.00 0.00 0.00 41 915.5
20260505030305 64 40 6.0 9.0 0.00 0.00 0.00 41 915.4
20260505030026 65 43 6.0 9.0 0.00 0.00 0.00 41 915.5
20260505025249 65 39 6.0 12.0 0.00 0.00 0.00 40 915.5
20260505025014 66 50 7.0 12.0 0.00 0.00 0.00 38 915.5
20260505024233 67 39 7.0 12.0 0.00 0.00 0.00 37 915.5
20260505023726 67 44 6.0 11.0 0.00 0.00 0.00 38 915.4
20260505023222 67 42 5.0 10.0 0.00 0.00 0.00 39 915.4
20260505022711 67 50 6.0 11.0 0.00 0.00 0.00 38 915.3
20260505022206 68 45 6.0 11.0 0.00 0.00 0.00 37 915.3
20260505021917 68 37 6.0 12.0 0.00 0.00 0.00 37 915.3
20260505021627 69 35 7.0 15.0 0.00 0.00 0.00 37 915.3
20260505020643 69 54 7.0 13.0 0.00 0.00 0.00 35 915.3
20260505020402 69 36 6.0 11.0 0.00 0.00 0.00 36 915.2
20260505015627 69 27 7.0 14.0 0.00 0.00 0.00 37 915.2
20260505015121 70 35 8.0 14.0 0.00 0.00 0.00 35 915.3
20260505014615 70 64 9.0 16.0 0.00 0.00 0.00 34 915.2
20260505014105 70 37 9.0 16.0 0.00 0.00 0.00 34 915.3
20260505013559 71 48 9.0 15.0 0.00 0.00 0.00 34 915.3
20260505013053 71 39 9.0 14.0 0.00 0.00 0.00 33 915.2
20260505012543 71 65 11.0 17.0 0.00 0.00 0.00 35 915.2
20260505012037 71 45 12.0 17.0 0.00 0.00 0.00 34 915.2
20260505011531 71 52 8.0 17.0 0.00 0.00 0.00 35 915.2
20260505011240 71 45 6.0 13.0 0.00 0.00 0.00 35 915.3
20260505010736 71 47 8.0 15.0 0.00 0.00 0.00 36 915.3
20260505010009 71 25 9.0 15.0 0.00 0.00 0.00 37 915.4
20260505005459 71 64 10.0 15.0 0.00 0.00 0.00 34 915.4
20260505004953 71 60 8.0 15.0 0.00 0.00 0.00 35 915.4
20260505004447 71 36 7.0 14.0 0.00 0.00 0.00 37 915.5
20260505003942 71 44 8.0 14.0 0.00 0.00 0.00 36 915.4
20260505003431 71 59 9.0 15.0 0.00 0.00 0.00 35 915.4
20260505002925 72 51 8.0 16.0 0.00 0.00 0.00 35 915.5
20260505002415 72 63 8.0 16.0 0.00 0.00 0.00 35 915.5
20260505001909 72 54 9.0 16.0 0.00 0.00 0.00 36 915.6
20260505001404 73 31 7.0 16.0 0.00 0.00 0.00 36 915.4
20260505001116 73 50 6.0 16.0 0.00 0.00 0.00 36 915.5
20260505000618 73 58 8.0 16.0 0.00 0.00 0.00 36 915.5
20260504235841 73 29 8.0 14.0 0.00 0.00 0.00 35 915.5
20260504235331 73 59 8.0 17.0 0.00 0.00 0.00 34 915.5
20260504234825 73 39 6.0 17.0 0.00 0.00 0.00 35 915.5
20260504234538 73 45 6.0 12.0 0.00 0.00 0.00 36 915.5
20260504233809 73 74 7.0 13.0 0.00 0.00 0.00 34 915.5
20260504233316 73 33 6.0 13.0 0.00 0.00 0.00 36 915.7
20260504232757 73 12 7.0 14.0 0.00 0.00 0.00 36 915.6
20260504232512 73 27 8.0 14.0 0.00 0.00 0.00 33 915.5
20260504231742 74 46 7.0 14.0 0.00 0.00 0.00 36 915.6
20260504231236 73 9 5.0 14.0 0.00 0.00 0.00 37 915.5
20260504230738 73 83 5.0 14.0 0.00 0.00 0.00 37 915.6
20260504230224 73 54 6.0 15.0 0.00 0.00 0.00 35 915.7
20260504225942 74 359 7.0 15.0 0.00 0.00 0.00 35 915.7
20260504225203 74 32 7.0 15.0 0.00 0.00 0.00 37 915.7
20260504224658 73 9 4.0 15.0 0.00 0.00 0.00 36 915.7
20260504224152 73 64 7.0 19.0 0.00 0.00 0.00 36 915.7
20260504223642 73 43 8.0 19.0 0.00 0.00 0.00 37 915.7
20260504223135 73 48 4.0 15.0 0.00 0.00 0.00 36 915.7
20260504222630 73 70 5.0 13.0 0.00 0.00 0.00 37 915.8
20260504222342 73 21 6.0 17.0 0.00 0.00 0.00 37 915.9
20260504221613 73 27 4.0 17.0 0.00 0.00 0.00 38 915.8
20260504221108 73 73 6.0 15.0 0.00 0.00 0.00 36 915.8
20260504220821 73 36 6.0 15.0 0.00 0.00 0.00 35 915.8
20260504220100 73 348 4.0 11.0 0.00 0.00 0.00 37 915.9
20260504215545 73 299 4.0 13.0 0.00 0.00 0.00 37 915.7
20260504215515 73 359 4.0 10.0 0.00 0.00 0.00 37 916.0
20260504214758 73 359 6.0 14.0 0.00 0.00 0.00 38 915.8
20260504214029 73 54 7.0 14.0 0.00 0.00 0.00 37 915.9
20260504213527 73 37 7.0 13.0 0.00 0.00 0.00 37 916.0
20260504213026 73 50 8.0 13.0 0.00 0.00 0.00 38 916.0
20260504212527 73 41 8.0 13.0 0.00 0.00 0.00 37 916.1
20260504212025 73 66 5.0 13.0 0.00 0.00 0.00 37 916.1
20260504211525 73 332 5.0 12.0 0.00 0.00 0.00 38 916.0
20260504211025 73 347 6.0 12.0 0.00 0.00 0.00 36 916.2
20260504210522 73 52 7.0 14.0 0.00 0.00 0.00 37 916.1
20260504210023 73 25 8.0 14.0 0.00 0.00 0.00 35 916.1
20260504205523 73 347 7.0 12.0 0.00 0.00 0.00 35 916.1
20260504205025 73 13 7.0 14.0 0.00 0.00 0.00 38 916.1
20260504204526 72 313 7.0 14.0 0.00 0.00 0.00 35 916.0
20260504204249 73 4 8.0 13.0 0.00 0.00 0.00 35 916.2
20260504203525 72 9 8.0 17.0 0.00 0.00 0.00 37 916.2
20260504203023 72 343 9.0 17.0 0.00 0.00 0.00 39 916.0
20260504202519 72 23 9.0 15.0 0.00 0.00 0.00 38 916.2
20260504202019 72 359 8.0 14.0 0.00 0.00 0.00 37 916.0
20260504201519 72 36 8.0 16.0 0.00 0.00 0.00 40 916.1
20260504201019 72 16 7.0 16.0 0.00 0.00 0.00 40 916.1
20260504200520 72 36 8.0 16.0 0.00 0.00 0.00 42 916.2
20260504200018 72 54 8.0 15.0 0.00 0.00 0.00 39 916.1
20260504195519 72 354 6.0 14.0 0.00 0.00 0.00 42 916.1
20260504195018 72 12 6.0 15.0 0.00 0.00 0.00 40 916.0
20260504194518 72 4 6.0 15.0 0.00 0.00 0.00 41 916.1
20260504194019 71 344 5.0 11.0 0.00 0.00 0.00 45 916.1
20260504193738 71 23 5.0 12.0 0.00 0.00 0.00 40 916.1
20260504193019 71 41 6.0 13.0 0.00 0.00 0.00 44 916.1
20260504192519 70 345 7.0 13.0 0.00 0.00 0.00 42 916.1
20260504192019 70 51 7.0 13.0 0.00 0.00 0.00 42 916.2
20260504191519 70 347 7.0 13.0 0.00 0.00 0.00 46 916.1
20260504191019 70 4 7.0 13.0 0.00 0.00 0.00 44 916.3
20260504190750 70 354 8.0 13.0 0.00 0.00 0.00 46 916.3
20260504190018 70 13 7.0 13.0 0.00 0.00 0.00 43 916.3
20260504185519 70 359 6.0 12.0 0.00 0.00 0.00 43 916.3
20260504185015 70 9 6.0 12.0 0.00 0.00 0.00 45 916.4
20260504184736 69 329 6.0 13.0 0.00 0.00 0.00 47 916.4
20260504184014 69 4 6.0 13.0 0.00 0.00 0.00 47 916.4
20260504183515 69 8 6.0 11.0 0.00 0.00 0.00 48 916.4
20260504183014 69 348 5.0 11.0 0.00 0.00 0.00 47 916.4
20260504182514 69 326 4.0 11.0 0.00 0.00 0.00 47 916.3
20260504182015 69 347 4.0 10.0 0.00 0.00 0.00 50 916.4
20260504181515 69 50 4.0 11.0 0.00 0.00 0.00 48 916.6
20260504181014 69 11 3.0 12.0 0.00 0.00 0.00 47 916.6
20260504180514 69 25 2.0 12.0 0.00 0.00 0.00 49 916.6
20260504180015 68 359 3.0 8.0 0.00 0.00 0.00 48 916.5
20260504175514 68 13 2.0 8.0 0.00 0.00 0.00 49 916.5
20260504175014 67 302 1.0 6.0 0.00 0.00 0.00 48 916.5
20260504174514 67 303 1.0 6.0 0.00 0.00 0.00 48 916.5
20260504174014 67 172 0.0 2.0 0.00 0.00 0.00 49 916.5
20260504173515 66 172 0.0 5.0 0.00 0.00 0.00 49 916.6
20260504173011 66 174 1.0 5.0 0.00 0.00 0.00 51 916.5
20260504172510 66 174 1.0 4.0 0.00 0.00 0.00 51 916.5
20260504172011 65 175 1.0 4.0 0.00 0.00 0.00 54 916.5
20260504171510 65 174 1.0 5.0 0.00 0.00 0.00 53 916.5
20260504171011 65 175 1.0 5.0 0.00 0.00 0.00 52 916.4
20260504170732 65 159 1.0 5.0 0.00 0.00 0.00 52 916.5
20260504150932 57 295 2.0 4.0 0.00 0.00 0.00 64 916.5
20260504150649 58 296 1.0 4.0 0.00 0.00 0.00 64 916.5
20260504141022 56 11 0.0 0.0 0.00 0.00 0.00 66 916.4
20260504140258 55 12 0.0 0.0 0.00 0.00 0.00 67 916.4
20260504130636 49 36 0.0 5.0 0.00 0.00 0.00 67 915.9
20260504130130 49 25 0.0 0.0 0.00 0.00 0.00 67 915.8
20260504110341 49 54 4.0 7.0 0.00 0.00 0.00 67 915.7
20260504100217 52 56 0.0 0.0 0.00 0.00 0.00 61 915.8
20260504081642 55 50 0.0 0.0 0.00 0.00 0.00 57 915.8
20260504081403 55 48 0.0 0.0 0.00 0.00 0.00 58 915.8
20260504080638 56 51 0.0 0.0 0.00 0.00 0.00 56 915.8
20260504080142 55 53 0.0 0.0 0.00 0.00 0.00 56 915.8
20260504070115 58 54 0.0 0.0 0.00 0.00 0.00 53 916.0